FW0864 Weather Reports


Display with metric or nautical units.
time (UTC)temp
F
wind
direction
speed
MPH
gust
MPH
rain 1hr
in
rain 24hr
in
rain mn
in
humidity
%
barometer
mb
20260506185520 71 46 2.0 5.0 0.00 0.00 0.00 55 1016.9
20260506185019 70 293 2.0 6.0 0.00 0.00 0.00 55 1016.9
20260506184518 70 49 3.0 9.0 0.00 0.00 0.00 55 1016.9
20260506184018 70 224 3.0 9.0 0.00 0.00 0.00 56 1016.9
20260506183517 71 283 2.0 7.0 0.00 0.00 0.00 57 1017.0
20260506183016 70 354 2.0 4.0 0.00 0.00 0.00 58 1017.0
20260506182515 69 64 1.0 8.0 0.00 0.00 0.00 60 1017.0
20260506182013 69 310 4.0 9.0 0.00 0.00 0.00 60 1017.0
20260506181519 69 328 3.0 9.0 0.00 0.00 0.00 60 1017.1
20260506181011 69 247 2.0 6.0 0.00 0.00 0.00 61 1017.0
20260506180515 68 337 3.0 9.0 0.00 0.00 0.00 62 1017.0
20260506180011 68 258 5.0 9.0 0.00 0.00 0.00 61 1017.1
20260506175509 68 280 3.0 8.0 0.00 0.00 0.00 61 1017.1
20260506175007 68 328 3.0 8.0 0.00 0.00 0.00 63 1017.1
20260506174507 67 312 2.0 9.0 0.00 0.00 0.00 65 1017.1
20260506174004 66 120 3.0 9.0 0.00 0.00 0.00 65 1017.2
20260506173504 66 359 3.0 8.0 0.00 0.00 0.00 66 1017.2
20260506173002 65 315 3.0 8.0 0.00 0.00 0.00 67 1017.2
20260506172602 65 316 2.0 9.0 0.00 0.00 0.00 68 1017.1
20260506172059 65 249 3.0 9.0 0.00 0.00 0.00 68 1017.1
20260506171600 65 291 5.0 9.0 0.00 0.00 0.00 69 1017.1
20260506171056 65 309 3.0 8.0 0.00 0.00 0.00 69 1017.1
20260506170554 64 337 2.0 10.0 0.00 0.00 0.00 69 1017.2
20260506170053 64 310 4.0 10.0 0.00 0.00 0.00 70 1017.3
20260506165551 64 310 3.0 9.0 0.00 0.00 0.00 72 1017.2
20260506165049 63 243 6.0 9.0 0.00 0.00 0.00 72 1017.3
20260506164552 63 333 4.0 12.0 0.00 0.00 0.00 72 1017.2
20260506164048 63 258 6.0 12.0 0.00 0.00 0.00 73 1017.2
20260506163545 63 354 4.0 9.0 0.00 0.00 0.00 74 1017.1
20260506163046 62 338 2.0 9.0 0.00 0.00 0.00 75 1017.1
20260506162543 62 290 4.0 10.0 0.00 0.00 0.00 75 1017.2
20260506162042 61 254 4.0 11.0 0.00 0.00 0.00 76 1017.2
20260506161546 61 276 4.0 11.0 0.00 0.00 0.00 76 1017.3
20260506161040 61 319 5.0 10.0 0.00 0.00 0.00 77 1017.3
20260506160539 61 346 5.0 10.0 0.00 0.00 0.00 78 1017.3
20260506160044 60 334 5.0 10.0 0.00 0.00 0.00 78 1017.3
20260506155537 60 277 4.0 10.0 0.00 0.00 0.00 79 1017.3
20260506155036 60 275 5.0 9.0 0.00 0.00 0.00 80 1017.4
20260506154534 59 316 4.0 9.0 0.00 0.00 0.00 80 1017.3
20260506154033 59 295 3.0 10.0 0.00 0.00 0.00 82 1017.4
20260506153530 59 282 4.0 11.0 0.00 0.00 0.00 83 1017.4
20260506153030 58 258 3.0 11.0 0.00 0.00 0.00 84 1017.4
20260506152528 58 302 2.0 8.0 0.00 0.00 0.00 85 1017.4
20260506152027 57 278 2.0 9.0 0.00 0.00 0.00 85 1017.4
20260506151534 57 306 3.0 9.0 0.00 0.00 0.00 86 1017.5
20260506151025 57 289 3.0 8.0 0.00 0.00 0.00 86 1017.5
20260506150525 57 339 2.0 6.0 0.00 0.00 0.00 87 1017.5
20260506150030 56 330 3.0 8.0 0.00 0.00 0.00 87 1017.5
20260506145523 56 241 4.0 8.0 0.00 0.00 0.00 88 1017.5
20260506145023 56 308 3.0 8.0 0.00 0.00 0.00 88 1017.5
20260506144520 56 285 3.0 6.0 0.00 0.00 0.00 88 1017.5
20260506144034 55 243 2.0 7.0 0.00 0.00 0.00 88 1017.5
20260506143519 55 283 2.0 7.0 0.00 0.00 0.00 89 1017.4
20260506143035 55 308 2.0 6.0 0.00 0.00 0.00 89 1017.3
20260506142514 55 322 3.0 6.0 0.00 0.00 0.00 89 1017.4
20260506142013 54 333 2.0 6.0 0.00 0.00 0.00 89 1017.3
20260506141512 54 295 3.0 6.0 0.00 0.00 0.00 89 1017.3
20260506141010 54 303 1.0 4.0 0.00 0.00 0.00 89 1017.2
20260506140509 54 311 2.0 4.0 0.00 0.00 0.00 89 1017.1
20260506140010 53 280 1.0 4.0 0.00 0.00 0.00 89 1017.0
20260506135507 53 316 0.0 4.0 0.00 0.00 0.00 89 1016.9
20260506135007 53 321 2.0 4.0 0.00 0.00 0.00 89 1016.9
20260506134506 53 303 2.0 6.0 0.00 0.00 0.00 89 1016.8
20260506134005 53 274 1.0 5.0 0.00 0.00 0.00 89 1016.8
20260506133503 53 321 1.0 6.0 0.00 0.00 0.00 89 1016.7
20260506133004 53 309 0.0 2.0 0.00 0.00 0.00 89 1016.7
20260506132503 53 310 0.0 3.0 0.00 0.00 0.00 89 1016.6
20260506132100 53 297 1.0 3.0 0.00 0.00 0.00 89 1016.6
20260506131601 53 317 1.0 3.0 0.00 0.00 0.00 89 1016.6
20260506131059 53 289 1.0 3.0 0.00 0.00 0.00 89 1016.5
20260506130558 53 323 1.0 3.0 0.00 0.00 0.00 89 1016.4
20260506130131 53 289 1.0 3.0 0.00 0.00 0.00 89 1016.4
20260506125602 53 313 1.0 4.0 0.00 0.00 0.00 89 1016.4
20260506125056 53 297 1.0 4.0 0.00 0.00 0.00 89 1016.4
20260506124557 53 320 1.0 4.0 0.00 0.00 0.00 88 1016.3
20260506124055 53 274 1.0 4.0 0.00 0.00 0.00 88 1016.3
20260506123558 53 258 2.0 4.0 0.00 0.00 0.00 88 1016.3
20260506123054 53 307 2.0 4.0 0.00 0.00 0.00 88 1016.2
20260506122553 54 284 2.0 4.0 0.00 0.00 0.00 88 1016.2
20260506122053 54 256 2.0 4.0 0.00 0.00 0.00 88 1016.2
20260506121553 54 291 1.0 4.0 0.00 0.00 0.00 88 1016.1
20260506121053 54 337 2.0 5.0 0.00 0.00 0.00 88 1016.0
20260506120552 54 327 3.0 5.0 0.00 0.00 0.00 88 1016.0
20260506120052 54 327 2.0 5.0 0.00 0.00 0.00 89 1015.9
20260506115551 54 329 2.0 5.0 0.00 0.00 0.00 89 1015.9
20260506115051 54 332 2.0 4.0 0.00 0.00 0.00 89 1015.8
20260506114551 54 297 1.0 4.0 0.00 0.00 0.00 88 1015.8
20260506114052 54 316 2.0 4.0 0.00 0.00 0.00 89 1015.8
20260506113551 53 349 2.0 4.0 0.00 0.00 0.00 88 1015.9
20260506113056 53 328 1.0 4.0 0.00 0.00 0.00 88 1015.9
20260506112552 53 339 1.0 4.0 0.00 0.00 0.00 88 1016.0
20260506112054 53 293 1.0 3.0 0.00 0.00 0.00 88 1015.9
20260506111553 53 334 1.0 4.0 0.00 0.00 0.00 88 1016.0
20260506111050 54 305 1.0 4.0 0.00 0.00 0.00 87 1015.9
20260506110549 54 272 2.0 3.0 0.00 0.00 0.00 87 1015.9
20260506110058 54 303 1.0 3.0 0.00 0.00 0.00 87 1016.0
20260506105549 54 307 1.0 3.0 0.00 0.00 0.00 87 1015.9
20260506105049 54 354 0.0 3.0 0.00 0.00 0.00 87 1015.9
20260506104551 54 17 0.0 4.0 0.00 0.00 0.00 87 1015.8
20260506104048 54 345 0.0 5.0 0.00 0.00 0.00 87 1015.8
20260506103548 54 341 2.0 5.0 0.00 0.00 0.00 87 1015.7
20260506103048 54 332 2.0 5.0 0.00 0.00 0.00 87 1015.7
20260506102547 54 330 3.0 6.0 0.00 0.00 0.00 87 1015.7
20260506102045 54 318 2.0 6.0 0.00 0.00 0.00 87 1015.7
20260506101554 54 336 2.0 4.0 0.00 0.00 0.00 87 1015.7
20260506101045 54 342 2.0 4.0 0.00 0.00 0.00 87 1015.7
20260506100548 54 346 1.0 4.0 0.00 0.00 0.00 86 1015.7
20260506100046 55 321 1.0 4.0 0.00 0.00 0.00 86 1015.7
20260506095547 55 332 1.0 4.0 0.00 0.00 0.00 86 1015.6
20260506095044 55 320 2.0 4.0 0.00 0.00 0.00 86 1015.6
20260506094553 55 326 1.0 3.0 0.00 0.00 0.00 86 1015.6
20260506094043 55 343 0.0 4.0 0.00 0.00 0.00 86 1015.5
20260506093547 55 343 1.0 5.0 0.00 0.00 0.00 85 1015.5
20260506093047 55 345 3.0 5.0 0.00 0.00 0.00 85 1015.4
20260506092542 55 332 2.0 5.0 0.00 0.00 0.00 85 1015.3
20260506092042 55 349 3.0 5.0 0.00 0.00 0.00 85 1015.3
20260506091542 55 338 2.0 5.0 0.00 0.00 0.00 85 1015.2
20260506091045 55 342 1.0 6.0 0.00 0.00 0.00 85 1015.2
20260506090544 55 338 3.0 9.0 0.00 0.00 0.00 85 1015.1
20260506090043 55 343 2.0 9.0 0.00 0.00 0.00 85 1015.0
20260506085539 55 322 4.0 8.0 0.00 0.00 0.00 84 1014.9
20260506085038 56 313 3.0 8.0 0.00 0.00 0.00 84 1015.0
20260506084538 56 320 3.0 7.0 0.00 0.00 0.00 84 1015.2
20260506084037 56 295 3.0 8.0 0.00 0.00 0.00 85 1015.3
20260506083541 56 339 3.0 8.0 0.00 0.00 0.00 85 1015.2
20260506083037 56 320 3.0 8.0 0.00 0.00 0.00 85 1015.4
20260506082539 56 328 1.0 5.0 0.00 0.00 0.00 85 1015.6
20260506082035 56 333 1.0 4.0 0.00 0.00 0.00 85 1015.8
20260506081534 56 38 2.0 5.0 0.00 0.00 0.00 85 1016.0
20260506081034 57 341 2.0 8.0 0.00 0.00 0.00 85 1016.0
20260506080533 57 68 2.0 5.0 0.00 0.00 0.00 84 1016.0
20260506073528 57 4 1.0 5.0 0.00 0.00 0.00 83 1015.5
20260506073027 57 332 2.0 4.0 0.00 0.00 0.00 83 1015.4
20260506072527 57 345 1.0 5.0 0.00 0.00 0.00 83 1015.4
20260506072025 57 354 1.0 3.0 0.00 0.00 0.00 83 1015.3
20260506071526 57 354 1.0 5.0 0.00 0.00 0.00 83 1015.3
20260506071025 57 343 1.0 5.0 0.00 0.00 0.00 83 1015.2
20260506070523 57 332 2.0 4.0 0.00 0.00 0.00 83 1015.1
20260506062019 58 334 0.0 3.0 0.00 0.00 0.00 81 1014.5
20260506061519 58 339 1.0 3.0 0.00 0.00 0.00 81 1014.5
20260506061019 58 330 1.0 3.0 0.00 0.00 0.00 80 1014.5
20260506060521 59 327 1.0 3.0 0.00 0.00 0.00 80 1014.5
20260506051017 60 324 2.0 4.0 0.00 0.00 0.00 78 1014.2
20260506050521 60 277 2.0 4.0 0.00 0.00 0.00 77 1014.2
20260506045013 60 305 2.0 4.0 0.00 0.00 0.00 76 1014.1
20260506044513 61 321 2.0 5.0 0.00 0.00 0.00 75 1014.0
20260506044019 61 316 2.0 5.0 0.00 0.00 0.00 75 1013.9
20260506043512 61 312 2.0 5.0 0.00 0.00 0.00 74 1013.8
20260506043011 61 324 2.0 4.0 0.00 0.00 0.00 73 1013.8
20260506042511 61 303 1.0 4.0 0.00 0.00 0.00 73 1013.7
20260506042017 61 305 2.0 4.0 0.00 0.00 0.00 72 1013.6
20260506041522 61 335 1.0 4.0 0.00 0.00 0.00 72 1013.5
20260506041012 62 312 2.0 4.0 0.00 0.00 0.00 72 1013.4
20260506040515 62 304 1.0 4.0 0.00 0.00 0.00 71 1013.5
20260506040009 62 298 1.0 4.0 0.00 0.00 0.00 71 1013.4
20260506035507 62 321 1.0 5.0 0.00 0.00 0.00 70 1013.3
20260506035007 62 319 2.0 5.0 0.00 0.00 0.00 70 1013.1
20260506034508 62 328 1.0 5.0 0.00 0.00 0.00 70 1013.1
20260506034007 62 280 1.0 6.0 0.00 0.00 0.00 69 1013.1
20260506033506 62 316 2.0 3.0 0.00 0.00 0.00 69 1013.0
20260506033006 63 290 1.0 5.0 0.00 0.00 0.00 69 1012.9
20260506032508 63 327 2.0 5.0 0.00 0.00 0.00 69 1012.9
20260506032007 63 314 1.0 5.0 0.00 0.00 0.00 68 1012.8
20260506031512 63 331 1.0 6.0 0.00 0.00 0.00 68 1012.7
20260506031006 63 306 2.0 6.0 0.00 0.00 0.00 67 1012.6
20260506030508 63 326 2.0 5.0 0.00 0.00 0.00 67 1012.6
20260506030008 64 270 1.0 6.0 0.00 0.00 0.00 66 1012.6
20260506025505 64 316 1.0 6.0 0.00 0.00 0.00 66 1012.5
20260506025009 64 324 3.0 6.0 0.00 0.00 0.00 65 1012.4
20260506024506 64 336 2.0 6.0 0.00 0.00 0.00 65 1012.4
20260506024005 64 299 3.0 8.0 0.00 0.00 0.00 65 1012.4
20260506023506 65 329 4.0 9.0 0.00 0.00 0.00 64 1012.3
20260506023004 65 324 2.0 9.0 0.00 0.00 0.00 64 1012.2
20260506022504 65 354 4.0 10.0 0.00 0.00 0.00 64 1012.3
20260506022005 65 334 2.0 9.0 0.00 0.00 0.00 64 1012.2
20260506021506 65 341 3.0 10.0 0.00 0.00 0.00 63 1012.2
20260506021004 65 320 3.0 6.0 0.00 0.00 0.00 63 1012.2
20260506020507 65 339 2.0 9.0 0.00 0.00 0.00 63 1012.1
20260506020004 65 324 3.0 10.0 0.00 0.00 0.00 62 1012.1
20260506015504 66 21 2.0 10.0 0.00 0.00 0.00 63 1012.1
20260506015004 66 288 2.0 6.0 0.00 0.00 0.00 62 1012.1
20260506014507 66 316 3.0 8.0 0.00 0.00 0.00 62 1012.1
20260506014003 66 296 3.0 10.0 0.00 0.00 0.00 62 1012.0
20260506013503 66 307 4.0 10.0 0.00 0.00 0.00 61 1012.1
20260506013002 67 286 5.0 10.0 0.00 0.00 0.00 61 1012.1
20260506012504 66 313 3.0 8.0 0.00 0.00 0.00 61 1012.1
20260506012001 66 359 4.0 9.0 0.00 0.00 0.00 60 1012.1
20260506011502 66 330 2.0 9.0 0.00 0.00 0.00 60 1012.1
20260506011001 66 336 4.0 8.0 0.00 0.00 0.00 60 1012.2
20260506010501 67 21 4.0 12.0 0.00 0.00 0.00 59 1012.2
20260506010003 67 285 5.0 12.0 0.00 0.00 0.00 58 1012.2
20260506005602 67 307 2.0 11.0 0.00 0.00 0.00 58 1012.1
20260506005002 68 287 4.0 12.0 0.00 0.00 0.00 57 1012.1
20260506004601 68 263 8.0 12.0 0.00 0.00 0.00 56 1012.1
20260506004102 68 359 3.0 11.0 0.00 0.00 0.00 58 1012.2
20260506003559 68 331 4.0 9.0 0.00 0.00 0.00 58 1012.2
20260506003059 67 265 5.0 10.0 0.00 0.00 0.00 59 1012.2
20260506002559 67 325 3.0 10.0 0.00 0.00 0.00 59 1012.1
20260506002100 67 320 5.0 11.0 0.00 0.00 0.00 58 1012.1
20260506001618 67 262 6.0 12.0 0.00 0.00 0.00 58 1012.2
20260506001059 67 291 7.0 12.0 0.00 0.00 0.00 58 1012.2
20260506000558 67 233 5.0 11.0 0.00 0.00 0.00 59 1012.1
20260506000101 66 258 4.0 10.0 0.00 0.00 0.00 59 1012.0
20260505235558 66 335 5.0 10.0 0.00 0.00 0.00 60 1012.0
20260505235102 67 332 5.0 12.0 0.00 0.00 0.00 58 1012.0
20260505234600 68 252 5.0 12.0 0.00 0.00 0.00 58 1012.0
20260505234101 67 285 7.0 12.0 0.00 0.00 0.00 58 1012.0
20260505233557 67 330 6.0 12.0 0.00 0.00 0.00 59 1012.0
20260505233059 67 277 4.0 10.0 0.00 0.00 0.00 59 1012.0
20260505232557 67 294 5.0 10.0 0.00 0.00 0.00 60 1012.1
20260505232058 67 258 4.0 10.0 0.00 0.00 0.00 59 1012.0
20260505231558 67 308 5.0 13.0 0.00 0.00 0.00 59 1012.1
20260505231057 66 320 5.0 13.0 0.00 0.00 0.00 60 1012.1
20260505230556 66 307 4.0 12.0 0.00 0.00 0.00 61 1012.1
20260505230116 67 312 3.0 12.0 0.00 0.00 0.00 59 1012.2
20260505225556 68 289 5.0 10.0 0.00 0.00 0.00 58 1012.1
20260505225057 68 314 4.0 13.0 0.00 0.00 0.00 59 1012.2
20260505224555 67 260 5.0 13.0 0.00 0.00 0.00 58 1012.2
20260505224054 67 231 4.0 12.0 0.00 0.00 0.00 60 1012.3
20260505223554 67 282 4.0 15.0 0.00 0.00 0.00 61 1012.2
20260505223058 67 245 8.0 15.0 0.00 0.00 0.00 60 1012.3
20260505222554 66 284 4.0 9.0 0.00 0.00 0.00 60 1012.2
20260505222054 67 282 4.0 13.0 0.00 0.00 0.00 60 1012.2
20260505221555 67 275 5.0 13.0 0.00 0.00 0.00 61 1012.3
20260505221053 66 297 8.0 13.0 0.00 0.00 0.00 59 1012.4
20260505220553 67 277 3.0 15.0 0.00 0.00 0.00 60 1012.3
20260505220052 67 256 5.0 13.0 0.00 0.00 0.00 60 1012.3
20260505215551 66 316 8.0 12.0 0.00 0.00 0.00 60 1012.3
20260505215051 66 266 6.0 12.0 0.00 0.00 0.00 59 1012.3
20260505214601 66 301 5.0 12.0 0.00 0.00 0.00 60 1012.3
20260505214050 66 272 5.0 14.0 0.00 0.00 0.00 60 1012.4
20260505213549 66 251 5.0 14.0 0.00 0.00 0.00 61 1012.5
20260505213056 66 318 4.0 11.0 0.00 0.00 0.00 61 1012.5
20260505212548 65 342 4.0 11.0 0.00 0.00 0.00 62 1012.5
20260505212048 65 272 7.0 12.0 0.00 0.00 0.00 62 1012.5
20260505211548 65 312 5.0 13.0 0.00 0.00 0.00 62 1012.5
20260505211050 65 339 5.0 13.0 0.00 0.00 0.00 61 1012.5
20260505210547 65 233 3.0 6.0 0.00 0.00 0.00 62 1012.5
20260505210049 64 265 2.0 11.0 0.00 0.00 0.00 63 1012.6
20260505205546 64 312 5.0 11.0 0.00 0.00 0.00 62 1012.6
20260505205047 64 279 4.0 11.0 0.00 0.00 0.00 62 1012.7
20260505204545 64 4 5.0 14.0 0.00 0.00 0.00 62 1012.7
20260505204045 64 29 3.0 14.0 0.00 0.00 0.00 63 1012.7
20260505203545 64 287 5.0 11.0 0.00 0.00 0.00 62 1012.7
20260505203048 64 274 5.0 13.0 0.00 0.00 0.00 63 1012.8
20260505202543 64 300 3.0 13.0 0.00 0.00 0.00 63 1012.7
20260505202047 64 322 7.0 14.0 0.00 0.00 0.00 63 1012.8
20260505201550 63 243 7.0 14.0 0.00 0.00 0.00 64 1012.7
20260505201042 63 259 4.0 10.0 0.00 0.00 0.00 62 1012.9
20260505200540 63 295 2.0 12.0 0.00 0.00 0.00 64 1012.9
20260505200041 63 303 4.0 12.0 0.00 0.00 0.00 65 1012.9
20260505195539 63 321 5.0 12.0 0.00 0.00 0.00 65 1012.9
20260505195041 63 255 5.0 11.0 0.00 0.00 0.00 66 1012.9
20260505194540 62 266 5.0 12.0 0.00 0.00 0.00 66 1013.0
20260505194038 62 337 4.0 10.0 0.00 0.00 0.00 67 1013.0
20260505193541 62 306 5.0 12.0 0.00 0.00 0.00 66 1013.0
20260505193046 62 341 6.0 12.0 0.00 0.00 0.00 65 1013.1
20260505192542 63 256 5.0 10.0 0.00 0.00 0.00 65 1013.0
20260505192037 62 310 5.0 10.0 0.00 0.00 0.00 66 1013.0
20260505191548 62 341 5.0 11.0 0.00 0.00 0.00 67 1013.0
20260505191035 62 245 6.0 12.0 0.00 0.00 0.00 66 1013.2
20260505190534 62 247 7.0 12.0 0.00 0.00 0.00 67 1013.0
20260505190037 61 279 4.0 12.0 0.00 0.00 0.00 67 1013.1